N66M KBFL-KFAT

Flight info

Callsign N66M
Flight time 0h 22m
Altitude 12000
Route TTE ATTLA9
Aircraft E55P/L-VGDW/C

Departure

Time 2026-04-19 03:11
Airport Meadows Field (KBFL)

Arrival

Time 2026-04-19 03:34
Airport Fresno Yosemite International Airport (KFAT)
Time Latitude Longitude Altitude Speed Heading
2026-04-19 02:44 35.42968 -119.04666 512 ft 0 kts 127°
2026-04-19 03:06 35.42962 -119.04658 510 ft 3 kts 131°
2026-04-19 03:06 35.42914 -119.04658 507 ft 11 kts 201°
2026-04-19 03:07 35.42834 -119.04712 503 ft 15 kts 171°
2026-04-19 03:07 35.42748 -119.04629 500 ft 16 kts 134°
2026-04-19 03:07 35.42670 -119.04532 497 ft 14 kts 135°
2026-04-19 03:07 35.42604 -119.04486 495 ft 10 kts 196°
2026-04-19 03:08 35.42578 -119.04506 494 ft 0 kts 226°
2026-04-19 03:09 35.42570 -119.04517 493 ft 4 kts 226°
2026-04-19 03:10 35.42538 -119.04564 491 ft 8 kts 253°
2026-04-19 03:10 35.42557 -119.04618 490 ft 5 kts 312°
2026-04-19 03:10 35.42566 -119.04629 490 ft 0 kts 316°
2026-04-19 03:10 35.42575 -119.04639 490 ft 13 kts 316°
2026-04-19 03:11 35.42835 -119.04951 495 ft 90 kts 315°
2026-04-19 03:11 35.43439 -119.05675 548 ft 143 kts 317°
2026-04-19 03:11 35.44205 -119.06622 966 ft 169 kts 315°
2026-04-19 03:11 35.44983 -119.07706 1613 ft 183 kts 313°
2026-04-19 03:12 35.46064 -119.08579 2252 ft 200 kts 344°
2026-04-19 03:12 35.47480 -119.08436 2941 ft 217 kts 23°
2026-04-19 03:12 35.48619 -119.07152 3613 ft 237 kts 62°
2026-04-19 03:12 35.49010 -119.05164 4301 ft 253 kts 79°
2026-04-19 03:13 35.49328 -119.02973 4976 ft 267 kts 80°
2026-04-19 03:13 35.49622 -119.00719 5724 ft 277 kts 81°
2026-04-19 03:13 35.49928 -118.98345 6515 ft 284 kts 81°
2026-04-19 03:13 35.50231 -118.95976 7341 ft 286 kts 81°
2026-04-19 03:14 35.50741 -118.93656 8151 ft 286 kts 63°
2026-04-19 03:14 35.51905 -118.91716 8986 ft 286 kts 43°
2026-04-19 03:14 35.53612 -118.90509 9816 ft 285 kts 20°
2026-04-19 03:14 35.55477 -118.89735 10556 ft 290 kts 12°
2026-04-19 03:15 35.57537 -118.89887 11280 ft 304 kts 347°
2026-04-19 03:15 35.59602 -118.90526 11912 ft 319 kts 345°
2026-04-19 03:15 35.61838 -118.91320 12060 ft 345 kts 343°
2026-04-19 03:15 35.64215 -118.92180 12083 ft 369 kts 343°
2026-04-19 03:16 35.66717 -118.93090 12085 ft 373 kts 343°
2026-04-19 03:16 35.69203 -118.93997 12080 ft 372 kts 342°
2026-04-19 03:16 35.71693 -118.94905 12060 ft 371 kts 342°
2026-04-19 03:16 35.74171 -118.95810 12035 ft 369 kts 342°
2026-04-19 03:17 35.76640 -118.96712 12027 ft 367 kts 342°
2026-04-19 03:17 35.79068 -118.97599 12023 ft 365 kts 342°
2026-04-19 03:17 35.81493 -118.98486 12011 ft 359 kts 342°
2026-04-19 03:17 35.83896 -118.99365 12011 ft 357 kts 342°
2026-04-19 03:18 35.86277 -119.00236 12009 ft 355 kts 342°
2026-04-19 03:18 35.88624 -119.01096 12009 ft 354 kts 342°
2026-04-19 03:18 35.91001 -119.01967 12005 ft 352 kts 342°
2026-04-19 03:18 35.93273 -119.02993 12006 ft 350 kts 336°
2026-04-19 03:19 35.95541 -119.04073 11937 ft 336 kts 338°
2026-04-19 03:19 35.97664 -119.05090 11693 ft 326 kts 338°
2026-04-19 03:19 35.99775 -119.06095 11458 ft 324 kts 338°
2026-04-19 03:19 36.01889 -119.07101 11216 ft 325 kts 338°
2026-04-19 03:20 36.04010 -119.08112 10980 ft 328 kts 338°
2026-04-19 03:20 36.06142 -119.09128 10743 ft 330 kts 338°
2026-04-19 03:20 36.08301 -119.10156 10501 ft 332 kts 338°
2026-04-19 03:20 36.10464 -119.11189 10258 ft 333 kts 338°
2026-04-19 03:21 36.12650 -119.12231 10046 ft 332 kts 338°
2026-04-19 03:21 36.14784 -119.13250 10009 ft 325 kts 338°
2026-04-19 03:21 36.16861 -119.14241 9917 ft 322 kts 338°
2026-04-19 03:21 36.18957 -119.15243 9700 ft 320 kts 339°
2026-04-19 03:22 36.21026 -119.16232 9457 ft 319 kts 339°
2026-04-19 03:22 36.23112 -119.17229 9210 ft 318 kts 339°
2026-04-19 03:22 36.25167 -119.18213 8965 ft 316 kts 339°
2026-04-19 03:22 36.27209 -119.19191 8721 ft 315 kts 339°
2026-04-19 03:23 36.29253 -119.20171 8476 ft 313 kts 339°
2026-04-19 03:23 36.31298 -119.21151 8230 ft 312 kts 339°
2026-04-19 03:23 36.33316 -119.22119 7985 ft 311 kts 339°
2026-04-19 03:23 36.35327 -119.23083 7739 ft 309 kts 339°
2026-04-19 03:24 36.37334 -119.24048 7492 ft 308 kts 339°
2026-04-19 03:24 36.39343 -119.25012 7244 ft 306 kts 339°
2026-04-19 03:24 36.41313 -119.25960 7004 ft 305 kts 339°
2026-04-19 03:24 36.43300 -119.26915 6761 ft 303 kts 339°
2026-04-19 03:25 36.45264 -119.27861 6519 ft 302 kts 339°
2026-04-19 03:25 36.47205 -119.28797 6280 ft 300 kts 339°
2026-04-19 03:25 36.49160 -119.29740 6038 ft 299 kts 339°
2026-04-19 03:25 36.51086 -119.30668 5799 ft 297 kts 339°
2026-04-19 03:26 36.53027 -119.31605 5557 ft 295 kts 339°
2026-04-19 03:26 36.54897 -119.32592 5306 ft 294 kts 329°
2026-04-19 03:26 36.56280 -119.34403 5083 ft 290 kts 301°
2026-04-19 03:26 36.57411 -119.36472 5012 ft 284 kts 306°
2026-04-19 03:27 36.58521 -119.38457 4837 ft 274 kts 305°
2026-04-19 03:27 36.59601 -119.40367 4406 ft 268 kts 305°
2026-04-19 03:27 36.60636 -119.42200 3865 ft 252 kts 305°
2026-04-19 03:27 36.61614 -119.43933 3383 ft 239 kts 305°
2026-04-19 03:28 36.62575 -119.45637 2936 ft 240 kts 305°
2026-04-19 03:28 36.63530 -119.47330 2628 ft 234 kts 305°
2026-04-19 03:28 36.64437 -119.48940 2575 ft 219 kts 305°
2026-04-19 03:28 36.65281 -119.50436 2566 ft 205 kts 306°
2026-04-19 03:29 36.66077 -119.51852 2568 ft 195 kts 306°
2026-04-19 03:29 36.66843 -119.53204 2642 ft 182 kts 307°
2026-04-19 03:29 36.67567 -119.54465 2499 ft 179 kts 307°
2026-04-19 03:29 36.68293 -119.55727 2352 ft 178 kts 307°
2026-04-19 03:30 36.69012 -119.56979 2205 ft 177 kts 307°
2026-04-19 03:30 36.69726 -119.58225 2060 ft 177 kts 307°
2026-04-19 03:30 36.70448 -119.59487 1913 ft 177 kts 307°
2026-04-19 03:30 36.71161 -119.60730 1802 ft 175 kts 307°
2026-04-19 03:31 36.71855 -119.61942 1783 ft 168 kts 306°
2026-04-19 03:31 36.72519 -119.63103 1776 ft 158 kts 306°
2026-04-19 03:31 36.73107 -119.64187 1624 ft 146 kts 306°
2026-04-19 03:31 36.73686 -119.65180 1459 ft 136 kts 307°
2026-04-19 03:32 36.74240 -119.66116 1270 ft 133 kts 306°
2026-04-19 03:32 36.74775 -119.67049 1084 ft 131 kts 305°
2026-04-19 03:32 36.75304 -119.67994 889 ft 133 kts 305°
2026-04-19 03:32 36.75838 -119.68928 735 ft 130 kts 304°
2026-04-19 03:33 36.76359 -119.69836 582 ft 128 kts 306°
2026-04-19 03:33 36.76861 -119.70715 404 ft 120 kts 305°
2026-04-19 03:33 36.77316 -119.71505 334 ft 103 kts 305°
2026-04-19 03:33 36.77665 -119.72121 335 ft 56 kts 302°
2026-04-19 03:34 36.77838 -119.72424 336 ft 24 kts 305°
2026-04-19 03:34 36.77824 -119.72537 336 ft 8 kts 218°
2026-04-19 03:34 36.77759 -119.72534 335 ft 14 kts 125°
2026-04-19 03:34 36.77681 -119.72401 335 ft 22 kts 126°
2026-04-19 03:35 36.77589 -119.72309 334 ft 14 kts 208°
2026-04-19 03:35 36.77504 -119.72353 333 ft 13 kts 144°
2026-04-19 03:35 36.77438 -119.72283 332 ft 11 kts 127°
2026-04-19 03:35 36.77400 -119.72223 332 ft 6 kts 128°
2026-04-19 03:36 36.77383 -119.72196 332 ft 3 kts 128°
2026-04-19 03:36 36.77380 -119.72191 332 ft 0 kts 127°